This is the latest recevied weather packets stored in our database for station/object N3FAA. If no packets are shown the sender has not sent any weather packets the latest 1 day(s).
| Time | Temp. | Humidity | Pressure | Rain* | Wind** | Luminosity | Snow |
|---|---|---|---|---|---|---|---|
| 1778036271 | 12.78° C | 64% | 1011.4 hPa | 0 mm | - | 0 W/m² | - |
| 1778035967 | 12.78° C | 64% | 1011.3 hPa | 0 mm | - | 0 W/m² | - |
| 1778035665 | 12.78° C | 64% | 1011 hPa | 0 mm | - | 1 W/m² | - |
| 1778035361 | 12.78° C | 64% | 1010.9 hPa | 0 mm | - | 2 W/m² | - |
| 1778035057 | 12.78° C | 63% | 1011 hPa | 0 mm | - | 4 W/m² | - |
| 1778034755 | 12.78° C | 63% | 1011 hPa | 0 mm | - | 7 W/m² | - |
| 1778034451 | 13.33° C | 63% | 1010.6 hPa | 0 mm | - | 11 W/m² | - |
| 1778034149 | 13.33° C | 62% | 1010.9 hPa | 0 mm | - | 15 W/m² | - |
| 1778033847 | 13.89° C | 61% | 1010.5 hPa | 0 mm | - | 21 W/m² | - |
| 1778033544 | 14.44° C | 60% | 1010.7 hPa | 0 mm | - | 25 W/m² | - |
| 1778033240 | 14.44° C | 55% | 1010.7 hPa | 0 mm | - | 29 W/m² | - |
| 1778032636 | 15° C | 55% | 1010.7 hPa | 0 mm | - | 40 W/m² | - |
| 1778032333 | 15° C | 56% | 1010.5 hPa | 0 mm | - | 46 W/m² | - |
| 1778032030 | 15° C | 56% | 1010.3 hPa | 0 mm | - | 58 W/m² | - |
| 1778031726 | 15° C | 56% | 1010.2 hPa | 0 mm | - | 82 W/m² | - |
| 1778031424 | 15° C | 57% | 1010.1 hPa | 0 mm | - | 96 W/m² | - |
| 1778031121 | 15° C | 56% | 1010.3 hPa | 0 mm | - | 111 W/m² | - |
| 1778030817 | 15.56° C | 55% | 1010.4 hPa | 0 mm | - | 127 W/m² | - |
| 1778030514 | 15.56° C | 54% | 1010.3 hPa | 0 mm | - | 136 W/m² | - |
| 1778029907 | 15.56° C | 53% | 1010.4 hPa | 0 mm | - | 171 W/m² | - |
| 1778029606 | 16.11° C | 52% | 1010.1 hPa | 0 mm | - | 177 W/m² | - |
| 1778029303 | 16.11° C | 52% | 1010.1 hPa | 0 mm | - | 187 W/m² | - |
| 1778029000 | 16.67° C | 50% | 1010.3 hPa | 0 mm | - | 200 W/m² | - |
| 1778028393 | 16.11° C | 51% | 1010 hPa | 0 mm | - | 266 W/m² | - |
| 1778028090 | 16.67° C | 50% | 1010.1 hPa | 0 mm | - | 298 W/m² | - |
* Rain latest hour (hover to see other rain measurements)
** Current wind speed in m/s (hover to see current wind gust speed)